Weather History for KHAI - January, 2014

Change the Weather History Date:

Saturday, January 4, 2014

  Actual Average Record
Temperature  
Mean Temperature 23 °F -  
Max Temperature 32 °F 33 °F 57 °F (1950)
Min Temperature 14 °F 16 °F -19 °F (1981)
Degree Days  
Heating Degree Days 42    
Moisture  
Dew Point 16 °F    
Average Humidity 68    
Maximum Humidity 92    
Minimum Humidity 56    
Precipitation  
Precipitation 0.00 in - - ()
Sea Level Pressure  
Sea Level Pressure 29.94 in    
Wind  
Wind Speed 16 mph (SSW)    
Max Wind Speed 22 mph    
Max Gust Speed 30 mph    
Visibility 8 miles    
Events Snow    
Averages and records for this station are not official NWS values.
T = Trace of Precipitation, MM = Missing Value Source: NWS Daily Summary

Daily Weather History Graph

Daily Weather History Graph

Search for Another Location

Airport or City:

Trip Planner

Search our weather history database for the weather conditions in past years. The results will help you decide how hot, cold, wet, or windy it might be!

Date:

Astronomy

Jan. 04, 2014 Rise Set
Actual Time 8:10 AM EST 5:24 PM EST
Civil Twilight 7:39 AM EST 5:56 PM EST
Nautical Twilight 7:04 AM EST 6:30 PM EST
Astronomical Twilight 6:30 AM EST 7:04 PM EST
Moon 10:11 AM EST (1/4) 9:48 PM EST (1/4)
Length of Visible Light 10h 17m
Length of Day
9h 14m
Waxing Crescent, 15% of the Moon is Illuminated
Jan 4
Waxing Crescent
Jan 7
First Quarter
Jan 15
Full
Jan 24
Last Quarter
Jan 30
New

Hourly Weather History & Observations

Time (EST) Temp. Windchill Dew Point Humidity Pressure Visibility Wind Dir Wind Speed Gust Speed Precip Events Conditions
12:14 AM 14.4 °F -2.5 °F 5.7 °F 69% 30.04 in 10.0 mi South 18.4 mph 25.3 mph N/A   Clear
12:35 AM 14.9 °F -1.3 °F 6.1 °F 68% 30.02 in 10.0 mi South 17.3 mph 24.2 mph N/A   Clear
12:55 AM 15.3 °F -1.8 °F 6.3 °F 68% 30.01 in 10.0 mi South 19.6 mph 25.3 mph N/A   Clear
1:14 AM 15.6 °F -0.9 °F 6.1 °F 66% 30.01 in 10.0 mi SSW 18.4 mph 24.2 mph N/A   Clear
1:35 AM 15.8 °F -0.2 °F 6.1 °F 66% 30.00 in 10.0 mi South 17.3 mph 24.2 mph N/A   Clear
1:55 AM 16.2 °F -1.0 °F 6.4 °F 66% 29.98 in 10.0 mi South 20.7 mph 25.3 mph N/A   Clear
2:15 AM 16.7 °F 0.1 °F 6.8 °F 65% 29.98 in 10.0 mi South 19.6 mph 28.8 mph N/A   Clear
2:35 AM 17.2 °F 0.8 °F 7.5 °F 66% 29.97 in 10.0 mi SSW 19.6 mph 29.9 mph N/A   Clear
2:55 AM 17.1 °F -0.3 °F 7.7 °F 67% 29.98 in 7.0 mi South 21.9 mph 28.8 mph N/A   Clear
3:15 AM 16.5 °F -1.0 °F 7.7 °F 68% 29.97 in 10.0 mi South 21.9 mph 25.3 mph N/A   Clear
3:35 AM 16.7 °F -0.3 °F 7.9 °F 68% 29.97 in 7.0 mi SSW 20.7 mph 25.3 mph N/A   Clear
3:54 AM 16.9 °F 1.7 °F 7.7 °F 67% 29.97 in 10.0 mi South 16.1 mph 20.7 mph N/A   Clear
4:15 AM 17.6 °F 1.3 °F 7.9 °F 66% 29.96 in 10.0 mi SSW 19.6 mph 24.2 mph N/A   Clear
4:35 AM 18.1 °F 2.9 °F 7.7 °F 64% 29.96 in 10.0 mi SSW 17.3 mph - N/A   Clear
4:54 AM 18.3 °F 3.6 °F 8.1 °F 64% 29.95 in 10.0 mi SSW 16.1 mph - N/A   Clear
5:15 AM 18.1 °F 3.4 °F 7.9 °F 64% 29.94 in 10.0 mi SSW 16.1 mph - N/A   Clear
5:35 AM 18.3 °F 3.6 °F 8.2 °F 65% 29.93 in 10.0 mi South 16.1 mph - N/A   Clear
5:54 AM 18.3 °F 3.6 °F 8.6 °F 66% 29.92 in 10.0 mi SSW 16.1 mph - N/A   Clear
6:15 AM 18.5 °F 4.3 °F 8.6 °F 65% 29.92 in 10.0 mi SSW 15.0 mph - N/A   Clear
6:35 AM 19.2 °F 5.3 °F 9.0 °F 64% 29.91 in 10.0 mi SSW 15.0 mph - N/A   Clear
6:54 AM 20.3 °F 4.8 °F 9.3 °F 63% 29.90 in 10.0 mi SSW 19.6 mph 23.0 mph N/A   Clear
7:15 AM 21.0 °F 6.2 °F 10.2 °F 63% 29.90 in 10.0 mi SSW 18.4 mph 24.2 mph N/A   Clear
7:34 AM 21.2 °F 6.8 °F 10.0 °F 62% 29.90 in 10.0 mi SSW 17.3 mph 27.6 mph N/A   Clear
7:55 AM 21.2 °F 6.8 °F 10.0 °F 62% 29.89 in 10.0 mi SSW 17.3 mph 23.0 mph N/A   Clear
8:15 AM 21.2 °F 6.4 °F 10.2 °F 63% 29.89 in 10.0 mi SSW 18.4 mph 25.3 mph N/A   Clear
8:34 AM 21.6 °F 7.8 °F 10.4 °F 62% 29.90 in 10.0 mi SSW 16.1 mph - N/A   Clear
8:55 AM 22.1 °F 8.5 °F 10.6 °F 61% 29.90 in 10.0 mi SSW 16.1 mph - N/A   Clear
9:15 AM 23.0 °F 9.6 °F 11.1 °F 60% 29.90 in 10.0 mi SSW 16.1 mph 24.2 mph N/A   Clear
9:35 AM 23.9 °F 10.3 °F 11.7 °F 60% 29.91 in 10.0 mi SSW 17.3 mph 24.2 mph N/A   Clear
9:55 AM 24.8 °F 11.9 °F 12.2 °F 59% 29.92 in 10.0 mi SW 16.1 mph 23.0 mph N/A   Clear
10:15 AM 25.5 °F 13.3 °F 12.9 °F 59% 29.92 in 10.0 mi SSW 15.0 mph 26.5 mph N/A   Clear
10:35 AM 26.2 °F 12.2 °F 13.3 °F 58% 29.92 in 10.0 mi SSW 20.7 mph 27.6 mph N/A   Clear
10:55 AM 27.5 °F 13.9 °F 13.6 °F 56% 29.93 in 10.0 mi SW 20.7 mph 28.8 mph N/A   Clear
11:15 AM 27.5 °F 14.6 °F 14.7 °F 59% 29.92 in 7.0 mi SSW 18.4 mph 28.8 mph N/A   Clear
11:35 AM 27.5 °F 15.9 °F 15.3 °F 60% 29.91 in 7.0 mi SW 15.0 mph 26.5 mph N/A   Clear
11:54 AM 28.8 °F 16.2 °F 15.8 °F 58% 29.90 in 10.0 mi SSW 18.4 mph 26.5 mph N/A   Clear
12:15 PM 29.3 °F 17.7 °F 16.0 °F 58% 29.89 in 10.0 mi SSW 16.1 mph 28.8 mph N/A   Clear
12:35 PM 30.0 °F 17.2 °F 17.4 °F 59% 29.88 in 10.0 mi SSW 20.7 mph 26.5 mph N/A   Clear
12:54 PM 30.4 °F 19.5 °F 17.2 °F 58% 29.88 in 10.0 mi SW 15.0 mph 26.5 mph N/A   Clear
1:15 PM 30.6 °F 17.9 °F 18.0 °F 60% 29.87 in 10.0 mi SW 20.7 mph - N/A   Clear
1:35 PM 31.1 °F 18.9 °F 18.1 °F 59% 29.87 in 10.0 mi SSW 19.6 mph 25.3 mph N/A   Clear
1:54 PM 31.3 °F 20.3 °F 18.3 °F 59% 29.88 in 10.0 mi SW 16.1 mph 21.9 mph N/A   Scattered Clouds
2:15 PM 31.8 °F 21.8 °F 18.5 °F 58% 29.89 in 10.0 mi SW 13.8 mph 20.7 mph N/A   Scattered Clouds
2:35 PM 31.8 °F 21.8 °F 18.9 °F 59% 29.88 in 10.0 mi SW 13.8 mph 20.7 mph N/A   Scattered Clouds
2:54 PM 32.0 °F 23.6 °F 18.9 °F 58% 29.89 in 10.0 mi SW 10.4 mph 19.6 mph N/A   Mostly Cloudy
3:15 PM 32.0 °F 24.2 °F 19.4 °F 60% 29.90 in 10.0 mi SW 9.2 mph 18.4 mph N/A   Overcast
3:35 PM 32.0 °F 24.8 °F 19.9 °F 61% 29.90 in 10.0 mi SW 8.1 mph - N/A   Overcast
3:54 PM 32.0 °F 23.0 °F 20.3 °F 62% 29.90 in 10.0 mi SW 11.5 mph - N/A   Overcast
4:15 PM 32.0 °F 24.2 °F 20.7 °F 63% 29.91 in 10.0 mi SSW 9.2 mph - N/A   Overcast
4:35 PM 32.0 °F 22.5 °F 21.2 °F 64% 29.91 in 10.0 mi South 12.7 mph - N/A   Overcast
4:55 PM 32.0 °F 23.0 °F 21.2 °F 64% 29.92 in 10.0 mi SSW 11.5 mph - N/A   Overcast
5:15 PM 31.8 °F 22.3 °F 21.2 °F 65% 29.93 in 10.0 mi SSW 12.7 mph - N/A   Overcast
5:34 PM 31.8 °F 22.8 °F 21.4 °F 65% 29.93 in 10.0 mi SSW 11.5 mph - N/A   Overcast
5:55 PM 31.8 °F 23.9 °F 21.4 °F 65% 29.94 in 10.0 mi SW 9.2 mph - N/A   Overcast
6:15 PM 32.0 °F 26.4 °F 21.2 °F 64% 29.95 in 10.0 mi SW 5.8 mph - N/A   Overcast
6:34 PM 32.0 °F 26.4 °F 21.7 °F 66% 29.96 in 7.0 mi SW 5.8 mph - N/A Snow Light Snow
6:55 PM 31.1 °F 26.4 °F 23.0 °F 72% 29.97 in 4.0 mi WSW 4.6 mph - N/A Snow Light Snow
7:15 PM 30.9 °F 27.5 °F 24.6 °F 77% 29.97 in 2.5 mi West 3.5 mph - N/A Snow Light Snow
7:34 PM 30.2 °F 26.7 °F 25.5 °F 83% 29.98 in 2.0 mi WSW 3.5 mph - N/A Snow Light Snow
7:55 PM 29.7 °F - 25.9 °F 86% 29.98 in 1.8 mi Calm Calm - N/A Snow Light Snow
8:15 PM 29.5 °F 24.5 °F 26.4 °F 88% 29.98 in 1.8 mi SSW 4.6 mph - N/A Snow Light Snow
8:34 PM 29.3 °F 25.6 °F 26.6 °F 90% 29.99 in 1.5 mi South 3.5 mph - N/A Snow Light Snow
8:55 PM 29.3 °F 24.3 °F 26.6 °F 90% 29.98 in 1.2 mi South 4.6 mph - N/A Snow Light Snow
9:15 PM 29.1 °F 24.1 °F 26.6 °F 90% 29.98 in 1.8 mi South 4.6 mph - N/A Snow Light Snow
9:35 PM 29.1 °F 24.1 °F 26.6 °F 90% 29.98 in 1.2 mi South 4.6 mph - N/A Snow Snow
9:55 PM 29.1 °F 24.1 °F 26.6 °F 90% 29.98 in 1.5 mi South 4.6 mph - N/A Snow Light Snow
10:15 PM 29.1 °F 24.1 °F 27.0 °F 92% 29.99 in 1.2 mi South 4.6 mph - N/A Snow Light Snow
10:35 PM 29.3 °F 24.3 °F 27.1 °F 92% 30.00 in 1.8 mi South 4.6 mph - N/A Snow Light Snow
10:55 PM 29.3 °F 24.3 °F 27.1 °F 92% 30.00 in 2.0 mi South 4.6 mph - N/A Snow Light Snow
11:14 PM 29.3 °F 24.3 °F 27.1 °F 92% 29.99 in 2.0 mi South 4.6 mph - N/A Snow Light Snow
11:35 PM 29.3 °F 23.2 °F 27.1 °F 92% 29.99 in 2.0 mi South 5.8 mph - N/A Snow Light Snow
11:55 PM 29.3 °F 24.3 °F 27.3 °F 92% 29.98 in 2.0 mi South 4.6 mph - N/A Snow Light Snow